Location: Central Falls
(41.8900°N, 71.3929°W)
Time: 04:02:49
(UTC+00:00)

Vanguard 2 - Pass Details

Date: 07 December 2023
Orbit: 554 x 2918 km, 32.9° (Epoch: 01 March)

Event Time Altitude Azimuth Distance (km) Brightness Sun altitude
Rises 22:02:00 0° 194° (SSW) 6,213 12.7 -8.8°
Reaches altitude 10° 22:07:29 10° 180° (S) 5,475 12.2 -9.7°
Maximum altitude 22:18:39 22° 138° (SE) 4,816 11.4 -11.6°
Drops below altitude 10° 22:29:56 10° 98° (E) 5,592 11.4 -13.6°
Enters shadow 22:30:10 10° 97° (E) 5,622 11.4 -13.7°
Sets 22:35:30 0° 84° (E) 6,384 - -14.6°
